Dewpoint
13 13 14 14 15 15 14 14 16 16 16 14 14 15 15 15 15 15 15 15 15 15 15 15 16 16 16 16 16 16 16 17 18 19 21 21 22 23 24 25 25 26 29 31 31 30 28 27 28 29 29 29 29 30 30 30 31 33 34 35 36 37 37 37 37 37 37 38 38
12 12 13 15 15 15 14 14 15 15 15 15 15 15 15 15 15 15 15 15 15 15 15 15 16 16 16 16 16 16 16 16 17 19 20 21 22 23 24 24 25 26 29 32 31 29 27 27 28 29 30 30 30 30 30 30 31 32 34 34 35 36 37 37 37 37 37 38 39
12 12 12 13 13 13 13 13 14 14 15 15 15 15 15 15 14 14 14 15 15 15 15 15 15 16 16 16 16 15 15 16 17 18 20 21 22 23 24 24 25 28 30 33 30 28 26 26 28 29 31 31 30 31 31 32 33 33 34 34 35 36 36 37 37 37 38 38 39
12 12 12 12 13 13 13 13 14 14 14 15 15 15 14 14 14 14 14 14 14 14 15 15 15 16 16 16 15 15 15 17 18 19 20 21 22 23 24 24 26 29 32 32 29 26 25 26 28 30 31 31 31 31 32 32 32 33 33 34 34 35 36 36 37 38 38 38 38
12 12 13 13 13 13 14 14 14 14 14 15 14 14 14 14 14 14 14 14 14 14 15 15 15 16 16 16 15 15 15 17 20 20 20 22 23 23 24 24 27 30 32 30 27 25 25 26 29 30 31 32 32 31 31 32 32 33 33 34 34 35 36 36 37 38 38 38 38
12 12 13 13 13 13 14 14 14 14 14 15 14 13 13 13 13 14 14 14 14 15 15 16 16 16 15 15 14 15 16 17 18 20 20 21 22 23 23 24 28 29 29 26 25 25 26 28 29 30 31 32 31 30 31 31 32 33 34 34 34 34 35 36 37 37 38 38 38
12 12 12 13 13 14 14 14 15 15 15 14 14 13 13 13 14 14 14 14 15 15 16 16 16 15 14 14 15 16 16 17 18 20 20 21 22 22 23 25 27 28 26 25 25 25 26 29 29 30 31 32 31 30 30 31 32 33 34 34 34 34 35 36 37 37 37 37 36
12 13 13 14 14 15 15 15 15 15 14 14 14 14 14 14 15 15 15 15 15 15 15 15 14 14 14 15 16 16 17 18 19 19 20 21 21 22 23 24 25 25 25 24 24 25 26 28 29 30 30 31 30 30 31 31 33 34 34 34 33 34 35 36 36 37 36 36 36
12 13 14 15 15 15 15 16 16 15 14 14 14 14 14 15 16 16 16 16 16 16 15 14 14 14 15 16 16 17 18 19 19 20 20 20 21 22 23 24 24 24 24 24 24 25 26 27 28 29 29 29 29 30 31 32 33 34 34 34 33 34 35 35 36 36 36 36 35
12 13 14 14 14 15 16 15 15 15 15 14 14 14 15 17 16 16 16 17 16 15 14 13 14 15 16 16 17 18 19 19 20 20 21 21 22 23 23 24 24 24 24 24 24 25 26 27 27 27 28 29 29 30 31 32 32 33 34 34 33 33 34 34 35 35 35 35 35
13 13 14 14 14 15 16 14 15 15 15 14 14 15 15 16 16 16 17 17 16 14 14 14 15 16 16 17 18 18 19 19 20 20 21 22 23 23 24 25 25 24 24 24 25 25 26 26 26 26 27 27 29 30 31 31 32 33 34 34 33 33 33 34 34 34 35 35 35
13 13 14 14 15 15 15 14 15 15 15 15 15 15 15 14 15 16 17 16 15 14 15 16 16 16 17 18 18 19 19 19 20 20 21 22 23 24 25 25 25 25 25 25 25 25 25 26 27 27 27 27 29 30 31 30 31 33 34 33 33 33 33 33 34 34 35 35 35
13 13 14 14 15 15 15 15 15 15 15 15 15 15 15 14 16 16 16 16 15 15 16 16 17 17 18 18 18 19 19 20 20 21 21 22 23 24 25 26 27 27 26 25 25 25 26 26 28 29 29 28 28 29 30 30 31 33 33 33 33 32 33 33 34 34 34 34 34
13 14 14 14 15 15 15 15 15 15 15 14 15 14 14 14 15 16 16 16 16 16 16 17 17 17 18 19 19 19 20 20 21 21 21 22 22 24 25 26 28 28 27 27 26 26 26 27 28 29 29 29 29 29 29 30 31 33 33 32 32 32 33 33 34 34 34 34 34
13 13 14 14 14 15 15 15 15 15 14 14 15 15 15 14 15 16 16 16 16 16 16 17 17 18 19 19 20 20 20 21 21 21 21 22 22 23 24 25 27 28 28 28 28 28 28 28 28 28 29 29 29 29 29 30 32 33 33 33 32 32 33 33 33 34 34 34 34
13 14 14 14 14 14 15 15 15 15 15 15 16 16 16 15 15 16 17 16 16 16 16 17 18 18 19 20 20 20 20 21 21 22 22 22 23 24 25 26 26 27 27 27 27 28 28 28 28 28 29 29 29 29 30 31 33 33 33 32 33 33 33 33 33 33 33 33 34
14 15 15 15 15 15 15 15 15 15 15 16 16 16 16 16 16 17 18 18 17 17 18 19 19 19 19 20 20 21 21 21 21 22 22 23 25 25 26 26 26 26 26 26 27 27 27 28 28 28 28 29 29 30 31 33 33 33 32 32 33 33 33 33 33 33 33 33 33
15 15 15 15 15 16 16 16 16 16 16 17 17 17 17 17 17 18 18 19 18 19 20 21 21 21 21 21 22 22 23 23 23 23 23 24 25 25 26 26 26 26 26 26 27 27 27 27 27 28 28 29 30 31 33 34 33 32 32 32 32 33 33 33 33 33 33 33 33
14 15 15 16 16 16 17 17 17 17 17 18 18 18 19 19 19 18 18 19 19 19 20 21 21 22 22 22 23 23 24 24 24 24 24 25 25 25 25 25 25 25 25 26 26 26 26 27 27 27 28 29 31 33 34 33 32 32 32 32 32 32 33 33 33 33 33 33 33
15 15 16 16 16 17 18 18 18 18 18 18 19 20 20 19 19 20 20 20 19 19 20 20 20 21 21 22 22 23 23 24 24 24 24 25 25 25 25 25 25 25 25 25 25 25 26 26 27 27 28 30 32 33 32 31 31 31 31 31 32 32 32 32 32 32 32 33 33
16 16 16 16 17 18 19 19 19 20 20 20 20 21 21 20 20 20 21 21 19 19 20 20 20 20 21 22 22 23 23 23 24 24 24 24 24 25 25 25 25 25 25 25 25 25 26 26 27 28 29 30 33 32 30 29 28 28 29 29 30 31 31 31 32 32 32 32 33
16 17 17 18 19 19 20 20 20 20 20 20 21 21 21 21 21 21 20 20 20 20 19 18 19 20 20 21 22 22 23 23 24 24 24 24 24 24 25 25 25 25 25 25 25 25 26 27 28 28 29 31 33 33 31 28 26 26 26 26 28 29 30 30 30 31 32 32 33
18 18 19 20 20 20 20 20 20 20 20 21 21 21 21 21 21 21 20 20 21 20 20 19 19 20 20 21 22 22 23 23 23 23 23 24 24 24 24 24 24 24 24 24 24 25 26 27 28 29 30 32 33 32 30 26 25 25 25 25 27 28 29 29 30 31 32 32 33
19 20 20 19 20 21 21 21 21 21 21 21 21 21 21 22 21 21 21 21 22 21 21 22 21 20 20 22 22 22 22 22 22 22 23 23 23 23 23 23 23 22 21 23 24 25 27 28 28 29 31 32 32 30 27 25 24 24 24 25 25 26 27 27 29 29 30 32 32
20 20 20 20 20 20 21 21 21 21 21 21 21 21 21 21 21 22 22 22 22 22 22 21 21 21 21 21 21 22 22 22 22 22 22 22 22 22 22 22 22 20 20 22 25 28 29 29 30 31 32 33 30 28 25 25 24 24 24 25 25 26 27 27 27 28 29 31 32
18 19 19 19 19 20 20 20 20 20 20 20 20 20 21 21 21 21 21 22 22 22 22 21 21 21 20 19 20 20 20 20 21 21 22 22 22 21 21 21 21 20 21 25 27 29 30 32 34 34 34 32 29 26 25 23 24 24 25 25 26 27 27 27 27 28 29 29 30
16 16 17 17 17 17 18 19 19 19 19 19 19 20 20 21 20 21 21 21 21 22 22 21 20 19 17 15 16 17 18 18 19 20 21 21 21 20 19 18 20 22 24 25 27 29 30 33 35 36 34 31 28 25 24 23 24 25 27 27 28 28 28 28 28 28 29 29 29
15 15 15 16 15 15 16 17 17 18 18 18 19 19 19 20 20 20 20 20 20 20 20 20 18 16 14 12 13 15 16 16 16 17 19 20 20 19 18 17 19 21 23 25 27 29 31 34 36 35 32 29 28 26 25 24 24 25 27 29 29 29 29 29 28 28 29 29 29
14 14 14 14 14 14 15 16 16 17 17 18 18 18 19 20 20 19 19 18 18 17 17 17 16 14 12 11 12 13 14 14 16 16 16 17 16 16 16 16 16 19 22 26 27 29 31 34 36 34 31 29 27 25 24 24 24 25 26 28 29 29 29 29 29 28 28 28 28
13 14 14 14 14 14 14 15 16 16 16 17 17 17 18 19 18 18 17 17 16 16 16 16 15 14 13 12 12 12 12 12 13 14 15 16 16 15 15 15 16 19 22 26 28 29 32 35 36 33 30 29 27 25 24 23 24 25 27 28 29 29 29 29 29 29 28 27 28
13 13 14 14 13 13 13 14 15 16 16 16 16 17 17 17 16 16 16 16 15 16 16 16 15 14 13 11 11 10 10 11 12 13 15 15 15 15 14 13 16 19 22 26 28 29 32 35 36 33 30 29 27 25 24 24 25 26 27 28 28 28 29 29 30 29 28 28 28
14 13 13 13 12 13 13 14 15 15 16 16 16 16 16 16 15 15 15 15 15 15 15 15 15 14 13 11 11 10 10 11 12 13 14 14 14 13 13 14 15 18 22 26 28 30 33 36 36 34 31 29 27 25 25 24 25 26 27 27 26 27 28 30 31 30 28 28 28
14 13 13 12 13 13 14 14 15 15 16 16 16 16 15 15 15 15 15 15 14 14 14 14 14 13 12 12 11 11 11 12 13 13 13 13 13 12 12 13 15 18 22 26 28 30 33 36 36 34 32 29 27 25 24 24 25 25 26 26 25 26 27 29 31 30 29 27 27
14 13 13 13 13 13 14 15 15 15 15 15 15 15 15 15 15 15 15 14 14 14 13 13 13 13 12 12 11 12 12 14 13 13 12 12 11 11 12 13 16 20 24 26 28 30 33 35 35 34 32 30 28 25 23 23 24 25 25 26 25 26 27 29 31 31 30 28 27
14 12 12 12 13 13 14 15 15 15 14 14 14 14 14 14 14 14 14 15 14 14 13 13 13 12 13 13 13 13 13 14 13 12 12 12 11 11 12 12 14 19 23 26 28 30 33 35 34 33 31 30 27 24 22 22 23 24 25 25 25 25 26 28 30 32 31 29 27
13 12 11 12 12 12 13 14 14 14 13 13 13 13 13 13 13 14 14 15 14 13 13 12 12 12 12 13 13 14 13 12 12 12 12 12 12 11 11 12 13 17 22 25 27 30 33 34 33 31 29 28 26 24 22 21 22 23 24 24 24 25 25 27 29 31 32 31 29
13 12 12 11 12 12 13 13 13 12 12 12 12 13 13 13 13 13 14 15 13 13 12 13 12 12 12 13 13 13 13 12 12 11 11 12 12 12 12 12 13 16 20 24 27 30 33 34 32 29 26 25 25 24 22 20 21 21 22 23 23 25 26 27 28 29 31 32 30
13 13 12 12 12 13 13 13 12 12 11 12 12 12 12 12 12 13 14 14 13 13 13 13 13 13 13 13 13 14 14 13 12 11 11 11 12 13 13 13 13 16 19 23 26 29 32 33 31 28 25 22 23 24 23 20 20 20 20 21 22 24 26 27 27 28 29 32 33
13 14 14 13 13 13 13 12 12 11 11 12 12 12 11 12 12 13 13 14 13 13 13 13 13 13 13 14 14 14 13 12 12 12 11 11 12 14 15 13 14 15 18 22 25 29 31 32 29 27 24 20 20 21 22 20 19 19 20 20 22 24 26 26 26 27 29 31 34
13 13 13 12 12 12 12 12 11 11 12 12 11 11 12 12 12 13 13 13 13 13 13 13 13 13 13 14 13 13 13 12 12 12 11 11 14 16 17 15 14 14 17 21 24 28 30 30 28 26 24 20 18 19 20 20 18 17 18 20 22 24 25 25 25 25 27 30 31
12 12 12 12 12 12 12 11 11 11 12 12 11 12 12 13 13 12 12 12 12 12 12 13 13 13 13 14 13 13 12 12 11 11 12 13 15 17 17 15 14 14 15 19 23 27 29 29 27 25 24 20 18 18 19 20 17 16 17 20 22 24 25 23 23 24 25 27 27